FENGYUN 1C DEB *, 47009

Orbit data source: Space-Track

FENGYUN 1C DEB *, 47009 is space debris in SSO originally from a launch on Mon, 10 May 1999 UTC launched from the Taiyaun Space Center, China (TSC). Fengyun 1C debris stems from the Chinese weather satellite Fengyun-1C, which was intentionally destroyed by a Chinese anti-satellite missile in 2007. This event dramatically increased the amount of space debris, with thousands of trackable fragments posing hazards to satellites and human spaceflight. The Fengyun 1C debris cloud has become a focal point in discussions about space sustainability and the need for international regulations to prevent the creation of new debris.

Loading next visibility...
Identifier
47009, 1999-025FAK
Orbit
SSO
Country
Flag of CNCN / PRC
Related business
Manufacturer
Unknown
Mission
Spacecraft
Bus & Motor
Unknown
Mass
Unknown
Launch date (UTC)
1999-05-10 (27 years ago)
Launch vehicle
Unknown
Launch site
Taiyaun Space Center, China (TSC)
Object type
Payload
Rocket body
Debris
Shape & HBR
Unknown shape, 0.1 m
Radar Cross Section
Small (<0.1 m²)

Expand to show TLE details & history
Last TLE update: 3 weeks ago

TLE from 3 weeks ago
0 FENGYUN 1C DEB *
1 47009U 99025FAK 25336.21494356  .00000387  00000-0  57132-3 0  9997
2 47009  98.9376 321.2954 0352227 285.6992  70.5550 13.37303446586681
Epoch: 2025-12-02T05:09Z
TLE epoch observation values (Epoch: 2025-12-02T05:09:31.123Z)
Latitude
-0.00004°
Longitude
172.61243°
Altitude
1,042.624 km
Speed
7.369 km/s
True Right ascension
21h 25m 10s
True Declination
0° 00' 00"
Sunlit
Object was in daylight at epoch
Visualization orbit readout
Latitude
Unknown
Longitude
Unknown
Altitude
Unknown
Speed
Unknown
Apparent Right ascension
Unknown
Apparent Declination
Unknown
Sunlit
N/A
Visualization observer readout
Local Sidereal Time
20:45:08
Azimuth
Unknown
Elevation
Unknown
Doppler factor
Unknown
Orbital elements
Apogee altitude
1,380.602 km
Perigee altitude
852.631 km
Semi-major axis
7,494.754 km
Eccentricity
0.03522
Inclination
98.9376°
RAAN
321.2954°
Arg. of periapsis
285.6992°
True anomaly
74.41466°
Mean anomaly
70.555°
Eccentric anomaly
72.47949°
Mean motion
3.34508 °/min
Orbital period
107.62 mins
BSTAR
0.00057132
Loading maneuver chart data...
Computing Atmospheric mass density...

Documentation

Showing up to 5 results
|